Regional Weather Roundup
Issued by NWS

Home | Current Version | Previous Version | Text Only | Print | Product List | Glossary Off
Versions: 1 2 3 4 5 6 7 8 9 10 11 12 13 14 15 16 17 18 19 20 21 22 23 24 25 26 27 28 29 30 31 32 33 34 35 36 37 38 39 40 41 42 43 44 45 46 47 48 49 50

000
ASUS43 KFSD 180910
RWRSD

WEATHER ROUNDUP FOR SOUTH DAKOTA
NATIONAL WEATHER SERVICE SIOUX FALLS SD
400 AM CDT SAT APR 18 2015

NOTE: "FAIR" INDICATES FEW OR NO CLOUDS BELOW 12,000 FEET WITH NO
SIGNIFICANT WEATHER AND/OR OBSTRUCTIONS TO VISIBILITY.


SDZ001>005-009-010-012>017-181000-
NORTHWEST AND NORTH CENTRAL SOUTH DAKOTA

CITY           SKY/WX    TMP DP  RH WIND       PRES   REMARKS
BUFFALO          N/A     44  32  62 S8        29.99S
FAITH            N/A     49  37  63 NW7       30.03F
MOBRIDGE       MOCLDY    48  27  44 E13       30.04S
$$

SDZ012>016-024>037-041>051-057-063-072>074-181000-
SOUTHWEST AND SOUTH CENTRAL SOUTH DAKOTA

CITY           SKY/WX    TMP DP  RH WIND       PRES   REMARKS
RAPID CTY ARPT CLOUDY    48  45  89 NW6       30.04F
PIERRE         CLOUDY    54  45  71 N13       30.00F
CUSTER         LGT RAIN  41  39  93 NE5       30.04F FOG
ELLSWORTH AFB  CLOUDY    48  47  99 W5        30.03F
PHILIP         CLOUDY    49  47  93 CALM      30.02F
PINE RIDGE     RAIN      47  46  97 E5        30.01F FOG
SPEARFISH      CLOUDY    45  39  81 E7        30.05F
WINNER         CLOUDY    53  48  83 N3        30.01F
$$

SDZ004>011-016>023-039-040-181000-
NORTHEAST SOUTH DAKOTA

CITY           SKY/WX    TMP DP  RH WIND       PRES   REMARKS
ABERDEEN       MOCLDY    43  27  53 N8        30.06S
WATERTOWN      MOCLDY    43  24  47 CALM      30.05S
BROOKINGS      CLOUDY    43  32  65 CALM      30.05S
SISSETON         N/A     40  25  55 NW8       30.07S
$$

SDZ017-020-022-023-036>040-048>070-181000-
SOUTHEAST SOUTH DAKOTA

CITY           SKY/WX    TMP DP  RH WIND       PRES   REMARKS
SIOUX FALLS    PTCLDY    50  26  39 NE7       30.01F
HURON          MOCLDY    49  33  54 CALM      30.02F
CHAMBERLAIN    CLOUDY    56  31  39 NE7       30.00F
MITCHELL       CLOUDY    56  27  32 E7        30.00F
YANKTON        CLOUDY    55  39  54 E5        29.99S
$$

ABBREVIATIONS USED IN REMARKS
   TC - TEMPERATURE IN CELSIUS
  WCI - WIND CHILL INDEX
   HX - HEAT INDEX
  VSB - VISIBILITY




USA.gov is the U.S. government's official web portal to all federal, state and local government web resources and services.